Location: Sereno
(37.7978°N, 89.8512°W)
Time: 02:36:46
(UTC+00:00)

Daily predictions for brighter satellites

Satellite Brightness Start Highest point End
(mag) Time Altitude Azimuth Time Altitude Azimuth Time Altitude Azimuth
CENTAUR R/B 3.4 01:26:45 10° NNW 01:35:16 84° ENE 01:44:23 10° SSE
CSL-04 Rocket 3.7 01:32:12 10° SSE 01:37:28 74° ENE 01:42:49 10° N
Cosmos 2227 Rocket 3.2 01:36:07 10° N 01:41:11 33° ENE 01:46:14 10° ESE
SL-4 R/B 4.0 01:37:48 10° NNW 01:41:36 24° NNE 01:45:13 10° ENE
Cosmos 1400 Rocket 3.8 01:39:08 10° NNW 01:42:53 48° W 01:46:39 10° S
Cosmos 1544 3.1 01:41:33 10° N 01:45:02 58° E 01:48:30 10° SSE
USA 238 DEB 4.1 01:39:17 10° NNW 01:46:38 66° NE 01:54:19 10° SE
USA 238 4.1 01:39:24 10° NNW 01:46:45 65° NE 01:54:25 10° SE
Cosmos 1980 Rocket 3.3 01:42:28 10° SSE 01:46:47 23° E 01:51:06 10° NE
Cosmos 1151 Rocket 2.9 01:45:38 10° S 01:49:53 81° E 01:54:11 10° N
Resurs 1-3 3.7 01:49:29 10° SSE 01:53:47 59° ENE 01:58:07 10° N
Cosmos 2369 4.4 01:49:30 10° SSE 01:54:25 32° ESE 01:59:21 10° NE
ASTRO E2 3.6 01:51:12 10° WSW 01:54:42 31° S 01:57:52 12° ESE
Cosmos 1666 Rocket 3.6 01:52:35 10° N 01:56:58 61° E 02:01:21 10° SSE
Gbstr 26 Del rocket 4.3 01:50:06 10° NW 01:57:35 74° SW 02:03:33 11° SE
Cosmos 44 3.3 01:55:23 10° NW 01:59:40 65° WSW 02:03:58 10° SSE
SJ 16-02 2.9 02:03:00 13° SE 02:04:57 16° E 02:07:42 10° ENE
Cosmos 1697 Rocket 2.7 02:00:01 10° SSW 02:05:40 73° ESE 02:11:19 10° NNE
Cosmos 1633 Rocket 3.1 02:01:32 10° N 02:05:53 62° E 02:10:10 10° SSE
JB-3 4.4 02:02:50 10° NNE 02:07:01 79° ESE 02:11:09 10° S
Cosmos 2360 4.2 02:02:47 10° SSW 02:08:25 72° ESE 02:14:05 10° NNE
H-2A R/B 3.5 02:06:17 10° S 02:10:33 49° W 02:14:44 10° NNW
OAO 3 Rocket 3.3 02:05:52 10° W 02:10:44 64° S 02:15:06 13° ESE
CZ-4 R/B 4.2 02:09:21 10° SW 02:11:31 14° W 02:13:42 10° WNW
Landsat 7 3.8 02:07:53 10° SSE 02:12:35 76° ENE 02:17:18 10° N
Cosmos 1570 Rocket 4.2 02:08:45 10° NNW 02:13:59 77° WSW 02:19:14 10° S
Sich 1 4.5 02:10:36 10° NNW 02:14:37 37° W 02:18:36 10° SSW
ATLAS CENTAUR Rocket 3.7 02:03:44 10° SW 02:15:09 26° S 02:18:22 16° SE
Cosmos 1470 Rocket 3.9 02:12:18 10° N 02:16:28 45° E 02:19:36 16° SSE
Cosmos 2297 Rocket 2.3 02:12:38 10° NNW 02:18:18 82° WSW 02:23:35 12° SSE
Cosmos 1486 Rocket 4.0 02:13:32 10° SSW 02:18:50 79° ESE 02:24:07 10° NNE
Cosmos 1515 3.8 02:15:54 10° S 02:19:35 54° E 02:23:16 10° NNE
Resurs 01 Rocket 1.8 02:16:10 15° SSE 02:19:42 55° ENE 02:24:00 10° N
SJ-6B 4.4 02:20:05 10° SSW 02:23:31 31° W 02:26:54 10° NNW
ARGOS Delta rocket 4.1 02:18:19 10° NNE 02:23:47 69° E 02:29:07 10° S
Cosmos 1315 Rocket 3.3 02:20:52 10° NNW 02:24:52 62° W 02:28:49 10° S
Cosmos 1515 Rocket 3.5 02:22:20 10° S 02:26:37 65° E 02:30:59 10° NNE
USA 129 3.4 02:28:08 15° WSW 02:28:08 15° WSW 02:28:45 10° WNW
Cosmos 389 Rocket 3.2 02:28:30 10° N 02:31:47 37° ENE 02:33:03 27° ESE
Cosmos 1340 2.5 02:28:29 12° S 02:31:56 70° E 02:35:40 10° NNE
Cosmos 405 2.8 02:28:59 10° N 02:32:23 88° W 02:34:34 21° S
SL-16 R/B 3.9 02:33:55 14° E 02:33:55 14° E 02:36:23 10° ENE
Cosmos 1184 Rocket 2.5 02:33:05 25° SSE 02:34:35 59° E 02:37:34 10° NNE
Cosmos 2228 Rocket 4.3 02:37:13 23° ESE 02:38:29 26° E 02:42:17 10° NNE
Cosmos 921 Rocket 4.0 02:35:05 10° N 02:39:10 32° ENE 02:40:56 24° ESE
CARTOSAT-1 4.2 02:38:19 25° SE 02:40:15 40° ENE 02:44:18 10° N
Meteor 1-27 Rocket 3.8 02:34:51 10° S 02:40:35 87° W 02:46:29 10° N
Cosmos 1743 2.6 02:39:50 10° N 02:43:36 65° E 02:45:13 31° SSE
ATLAS 2AS CENTAUR R/B 3.0 02:37:26 10° SSW 02:45:07 63° ESE 02:52:40 10° NE
Cosmos 1503 Rocket 3.9 02:42:42 10° SSW 02:47:57 84° ESE 02:53:17 10° NNE
BREEZE-M DEB (TANK) 4.4 02:45:01 10° WNW 02:48:21 34° SW 02:51:15 20° SSE
CZ-4B R/B 2.9 02:46:52 10° N 02:49:48 34° WNW 02:52:40 10° SW
Cosmos 2278 3.8 02:48:35 14° S 02:53:17 53° ESE 02:58:48 10° NNE
ERS-1 Rocket 4.0 02:52:45 24° ESE 02:54:31 30° ENE 02:58:52 10° N
Cosmos 2219 3.4 02:50:44 10° NNW 02:56:19 67° WSW 02:59:50 23° S
SPOT 1/Viking Rocket 3.6 02:53:29 21° S 02:57:02 75° WSW 03:02:12 10° NNW
Meteor 1-11 Rocket 4.2 02:52:20 10° NNW 02:58:15 64° W 03:03:02 16° S
Cosmos 1809 Rocket 4.5 02:53:34 10° N 02:59:39 64° E 03:02:53 29° SSE
H-2A R/B 4.4 02:57:39 10° NNW 03:00:52 23° WNW 03:04:07 10° WSW
ARIANE 5 R/B 4.2 03:00:48 19° E 03:01:37 20° ENE 03:04:53 10° NNE
Cosmos 2082 3.7 02:58:04 10° NNW 03:03:42 71° ENE 03:06:11 34° SE
Cosmos 1464 Rocket 4.2 02:58:36 10° SSW 03:04:46 68° W 03:10:56 10° N
Cosmos 2263 Rocket 3.0 03:03:26 10° N 03:08:36 37° ENE 03:10:33 29° ESE
Okean 1 3.2 03:09:20 39° S 03:10:45 90° E 03:14:47 10° N
Cosmos 1536 3.8 03:07:50 10° NNW 03:11:40 44° W 03:13:44 24° SSW
RESURS DK-1 2.2 03:09:41 27° SSW 03:11:51 86° ESE 03:15:59 10° NNE
Cosmos 1378 3.6 03:16:09 43° ENE 03:16:09 43° ENE 03:19:14 10° NNE
Cosmos 2344 4.0 03:08:24 10° SW 03:15:58 61° NW 03:23:25 10° NNE
ATLAS 3B R/B 4.3 03:10:09 10° NNW 03:16:17 27° NE 03:21:04 15° E
Ariane Rocket 3.8 03:18:14 21° SSW 03:21:14 45° W 03:26:07 10° NNW
SL-4 R/B 2.0 03:17:07 10° NW 03:21:36 78° SW 03:22:14 62° SSE
Cosmos 1092 Rocket 4.1 03:17:28 10° N 03:23:33 56° E 03:25:30 40° SE
Cosmos 2227 Rocket 3.5 03:20:10 10° NW 03:25:09 32° WSW 03:28:30 18° SSW
Nadezhda 4 Rocket 4.0 03:18:57 10° N 03:25:10 78° W 03:28:17 31° S
Cosmos 1634 Rocket 4.1 03:23:39 39° SE 03:25:42 56° E 03:31:44 10° NNE
CZ-2C R/B 3.7 03:21:17 10° NNE 03:26:04 71° ESE 03:27:10 51° SSE
Cosmos 1980 Rocket 3.3 03:25:04 10° SW 03:30:24 44° WNW 03:35:49 10° N
Meteor 2-14 Rocket 4.4 03:27:09 10° N 03:33:15 80° W 03:35:49 37° S
SPOT 5 3.0 03:34:23 50° SSE 03:35:50 88° ENE 03:41:04 10° NNW
Cosmos 2322 Rocket 2.8 03:38:50 36° E 03:38:50 36° E 03:43:26 10° NE
ISS -1.6 03:36:37 10° NNW 03:39:11 20° NNE 03:39:31 20° NE
Cosmos 1733 Rocket 4.0 03:36:05 10° NNE 03:39:49 34° ENE 03:39:49 34° ENE
Terra 1.8 03:40:18 61° ESE 03:40:48 66° ENE 03:45:33 10° N
Cosmos 1975 3.1 03:37:21 10° N 03:41:00 57° NE 03:41:00 57° NE
Meteor 2-4 Rocket 3.7 03:40:03 46° S 03:41:50 80° E 03:47:33 10° NNE
Helios 1A Rocket 3.2 03:41:33 55° WSW 03:41:52 57° W 03:45:49 10° NNW
SJ 16-02 2.7 03:39:52 14° SW 03:43:08 37° WNW 03:47:12 10° N
Timation 2 Rocket 4.2 03:38:13 10° NNW 03:44:49 71° WSW 03:47:15 42° S
H-2A ROCKET BODY 4.3 02:43:36 10° W 03:47:11 59° SSW 03:53:00 36° SE
Cosmos 1862 Rocket 4.1 03:49:17 45° ENE 03:49:17 45° ENE 03:52:57 10° NNE
Cosmos 2026 Rocket 3.9 03:43:37 10° N 03:49:50 79° E 03:51:25 53° SSE
OAO 3 Rocket 4.1 03:49:21 10° W 03:52:52 36° SW 03:52:52 36° SW
Spot 2 Rocket 3.8 03:53:55 47° SW 03:54:57 57° W 03:59:56 10° NNW
Resurs 01 Rocket 4.3 03:54:54 10° WSW 03:56:29 12° W 03:58:04 10° WNW
Cosmos 773 Rocket 4.4 03:58:21 10° NNW 04:03:24 51° WSW 04:04:06 48° SW
Cosmos 2219 Rocket 4.4 04:06:18 11° ENE 04:06:18 11° ENE 04:06:47 10° ENE
Meteor 2-8 Rocket 4.5 04:04:47 47° SSW 04:06:36 76° W 04:12:42 10° N
Cosmos 2227 4.1 04:02:11 10° NNW 04:07:58 77° ENE 04:08:34 69° ESE
USA 215 3.2 04:03:30 10° NE 04:09:59 62° SE 04:10:52 57° SSE
SL-16 R/B 2.3 04:15:42 51° SW 04:17:04 72° WNW 04:22:45 10° NNE
Cosmos 2237 4.0 04:17:02 76° ESE 04:17:04 76° ESE 04:22:48 10° NNE
Cosmos 1346 Rocket 4.0 04:21:06 38° WNW 04:21:06 38° WNW 04:24:34 10° N
Cosmos 2266 Rocket 4.5 04:19:29 10° N 04:25:23 43° ENE 04:25:37 43° E
Cosmos 2279 Rocket 4.0 04:28:04 58° SW 04:29:13 71° W 04:35:26 10° N
Okean 1-7 4.4 04:32:39 32° NE 04:32:39 32° NE 04:35:15 10° NNE
Cosmos 158 Rocket 4.5 04:26:33 10° NNW 04:31:26 50° W 04:31:26 50° W
ERS-1 Rocket 4.3 04:32:44 28° WSW 04:33:14 28° W 04:37:32 10° NW
Cosmos 44 Rocket 3.8 04:30:47 10° NW 04:34:29 52° WNW 04:34:29 52° WNW
ARIANE 5 R/B 3.9 04:38:20 34° W 04:38:20 34° W 04:41:54 10° NNW
Meteor 2-10 4.4 04:33:13 10° N 04:37:44 54° NE 04:37:44 54° NE
Meteor 1-13 Rocket 4.1 04:40:17 85° NNW 04:40:17 85° NNW 04:45:44 10° N
Cosmos 1538 Rocket 4.3 04:36:12 10° NNW 04:40:53 57° W 04:40:53 57° W
Cosmos 2360 Rocket 2.2 04:43:37 74° NE 04:43:37 74° NE 04:48:47 10° NNE
Geosat 4.2 04:47:02 64° WNW 04:47:02 64° WNW 04:51:24 10° NNW
Cosmos 2263 Rocket 3.5 04:47:41 10° NW 04:52:15 27° WSW 04:52:15 27° WSW
Cosmos 923 Rocket 4.3 04:54:17 10° NNW 04:58:53 66° N 04:58:53 66° N
Cosmos 1937 Rocket 3.9 05:01:25 57° NNE 05:01:25 57° NNE 05:05:37 10° NNE
Meteor 1-12 Rocket 4.3 04:54:43 10° N 05:00:21 81° N 05:00:21 81° N
ATLAS CENTAUR R/B 3.3 04:58:01 10° N 05:01:57 27° NE 05:01:57 27° NE
ATLAS 3B R/B 2.8 05:00:14 10° NW 05:07:40 74° WSW 05:08:17 70° SSW
Terra 4.4 05:19:10 11° W 05:19:10 11° W 05:20:22 10° WNW
Cosmos 2112 Rocket 4.5 05:14:54 10° NNW 05:19:14 59° N 05:19:14 59° N
Cosmos 1680 Rocket 4.0 05:16:13 10° NNW 05:20:26 57° NNW 05:20:26 57° NNW
Cosmos 2322 Rocket 3.8 05:20:36 24° W 05:22:23 29° WNW 05:27:13 10° N
Cosmos 2333 Rocket 2.4 05:25:36 67° N 05:25:36 67° N 05:30:33 10° NNE
Cosmos 2322 4.1 05:26:30 57° NE 05:26:30 57° NE 05:31:04 10° NNE
Cosmos 1818 4.0 05:21:19 10° NNW 05:26:00 57° NNE 05:26:00 57° NNE
ALOS 2 4.0 05:30:43 37° N 05:30:43 37° N 05:33:24 10° N
Cosmos 1844 Rocket 3.2 05:27:03 10° NNW 05:31:29 53° NW 05:31:29 53° NW
Cosmos 1655 Rocket 4.4 05:28:58 10° NNW 05:34:47 51° W 05:34:47 51° W
CZ-4C R/B 3.9 05:32:11 10° NNW 05:39:13 44° NE 05:43:12 28° ESE
Cosmos 2219 Rocket 2.5 05:47:59 60° NNW 05:47:59 60° NNW 05:52:49 10° NNE
USA 215 4.4 05:46:46 10° NNE 05:52:45 40° NNW 05:58:09 13° W
Cosmos 1844 4.5 05:48:22 10° NNW 05:52:45 45° WNW 05:52:45 45° WNW
ADEOS Rocket 3.0 06:03:06 66° NW 06:03:06 66° NW 06:08:08 10° NNW
ASTEX 1 4.3 06:00:06 10° N 06:03:36 46° NNE 06:03:36 46° NNE
Cosmos 2237 Rocket 3.0 06:16:53 43° ENE 06:16:53 43° ENE 06:21:13 10° NNE
SL-08 R/B 4.5 06:10:05 10° N 06:16:05 82° NNE 06:16:05 82° NNE
Nimbus 7 Rocket 4.5 06:11:03 10° N 06:16:27 70° NW 06:16:27 70° NW
COSMOS 2428 3.2 06:18:12 53° NW 06:18:12 53° NW 06:23:21 10° NNE
Cosmos 1125 Rocket 4.2 06:20:46 49° NE 06:20:46 49° NE 06:24:37 10° NNE
USA 267 3.3 06:24:07 60° ESE 06:25:21 76° NE 06:31:54 10° NW
Cosmos 1417 Rocket 4.5 06:29:57 76° NW 06:29:57 76° NW 06:35:52 10° N
USA 229 DEB 4.3 06:26:20 10° NNW 06:33:43 60° NE 06:37:08 35° ESE
USA 229 4.3 06:26:26 10° NNW 06:33:48 59° NE 06:37:17 34° ESE
Resurs 1-4 Rocket 3.9 06:31:30 10° NE 06:35:10 21° E 06:35:10 21° E
ATLAS CENTAUR R/B 3.9 06:36:39 10° NW 06:37:56 17° WNW 06:37:56 17° WNW
Cosmos 2315 Rocket 4.0 06:50:06 70° ESE 06:50:20 71° E 06:56:41 10° NNE
ADEOS II 4.3 06:47:56 10° ENE 06:50:47 15° E 06:51:27 14° E
Cosmos 2278 Rocket 2.3 06:45:17 10° NNW 06:50:47 70° NE 06:50:47 70° NE
Cosmos 1709 Rocket 4.0 06:46:48 10° N 06:52:54 68° E 06:53:12 67° E
S3M 4.2 06:57:20 58° W 06:57:24 58° W 07:03:41 10° N
Thor Agena Rocket 3.8 06:53:08 10° NNE 06:57:54 64° ENE 06:57:54 64° ENE
NOSS 3-1 (A) 4.1 06:52:38 10° NW 07:00:31 80° WSW 07:02:42 56° SSE
Cosmos 332 Rocket 4.4 07:03:02 55° NNE 07:03:02 55° NNE 07:06:47 10° NNE
SL-16 R/B 3.0 07:03:37 39° E 07:03:37 39° E 07:08:42 10° NE
USA 308 4.4 07:07:42 32° N 07:07:42 32° N 07:10:47 10° NNE
Cosmos 1975 Rocket 4.0 07:08:11 46° NE 07:08:11 46° NE 07:11:30 10° NNE
Cosmos 1980 4.0 07:07:55 55° WNW 07:07:55 55° WNW 07:13:22 10° NNE
Cosmos 1025 Rocket 4.0 07:14:32 45° NE 07:14:32 45° NE 07:17:46 10° NNE
COSMOS 2455 4.0 07:14:13 30° ESE 07:14:41 30° ESE 07:19:52 10° NE
USA 32 4.4 07:17:18 55° NW 07:17:18 55° NW 07:21:53 10° N
EO 1 Delta rocket 4.2 07:13:07 10° N 07:17:23 65° NW 07:17:23 65° NW
SME Rocket 3.8 07:19:18 52° NNE 07:19:18 52° NNE 07:23:10 10° N
NOSS 2-2 (D) 4.4 07:13:39 10° NW 07:19:17 83° WSW 07:20:30 63° SSE
Meteor 1-24 Rocket 3.8 07:23:37 64° ESE 07:23:58 65° E 07:29:25 10° NNE
Meteor 2-10 Rocket 3.5 07:20:13 10° N 07:25:44 81° WNW 07:25:44 81° WNW
CZ-4C R/B 3.3 07:20:38 10° NW 07:28:01 48° WSW 07:28:18 48° WSW
GP-B 4.0 07:24:35 10° N 07:27:49 43° NNW 07:27:49 43° NNW
Lacrosse 5 1.9 07:35:14 73° NW 07:35:14 73° NW 07:40:16 10° NE
Cosmos 1269 Rocket 4.4 07:30:07 10° N 07:35:20 59° ENE 07:36:35 46° ESE
Molniya-1 4.3 07:36:27 63° SSE 07:36:55 67° ESE 07:47:00 10° NE
Cosmos 1544 Rocket 4.0 07:37:08 10° N 07:41:28 54° E 07:41:31 54° E
Lacrosse 5 rocket 2.1 07:43:58 46° NE 07:43:58 46° NE 07:46:52 10° NE
Meteor 2-5 Rocket 3.7 07:45:31 64° WSW 07:46:02 68° W 07:51:43 10° N
CZ-2D R/B 1.9 07:41:54 10° NNE 07:47:16 84° WNW 07:47:44 74° SW
AQUA 3.7 07:52:08 10° NNE 07:56:55 78° ESE 07:57:19 71° SSE
Cosmos 2237 Rocket 3.8 07:58:41 21° WNW 08:00:03 23° NW 08:04:30 10° N
BREEZE-M DEB (TANK) 4.5 08:01:26 46° SW 08:01:51 47° SW 08:16:07 10° SSE
Cosmos 2154 Rocket 4.3 08:00:11 10° N 08:06:30 66° E 08:10:14 25° SSE
Resurs 1-4 Rocket 2.6 08:10:25 10° N 08:15:23 43° WNW 08:16:15 40° W
CRYOSAT 2 4.2 08:15:47 58° S 08:16:45 82° W 08:21:39 10° N
SL-16 R/B 2.4 08:15:02 40° S 08:17:19 70° WSW 08:23:33 10° NNW
EO 1 Del DPAF 3.0 08:18:15 10° NNE 08:21:33 78° NNE 08:21:33 78° NNE
Cosmos 1943 Rocket 2.1 08:16:47 10° NNW 08:22:28 76° WSW 08:25:08 32° S
Cosmos 292 Rocket 3.7 08:22:07 58° SW 08:23:02 80° WNW 08:27:51 10° NNE
Meteor 1-28 Rocket 3.1 08:23:04 71° SE 08:23:23 81° ENE 08:27:08 10° N
Cosmos 2297 3.7 08:18:21 10° NNW 08:24:08 86° ENE 08:28:41 17° SSE
Cosmos 2074 Rocket 4.1 08:24:12 10° NNW 08:30:20 55° W 08:32:36 37° SSW
ADEOS II 2.2 08:25:38 10° N 08:30:49 61° WNW 08:32:22 42° SW
IDEFIX/ARIANE 42P 2.5 08:26:00 10° N 08:31:16 75° WNW 08:33:04 42° SSW
Cosmos 2228 3.5 08:27:51 10° N 08:32:10 59° E 08:34:33 25° SSE
Cosmos 2278 Rocket 4.2 08:31:33 10° WNW 08:32:36 12° WNW 08:32:36 12° WNW
Cosmos 1536 Rocket 4.0 08:36:38 42° W 08:37:09 44° W 08:41:22 10° N
Cosmos 1295 Rocket 4.4 08:31:28 10° N 08:37:49 76° W 08:41:44 25° S
Cosmos 2327 Rocket 4.5 08:31:28 10° N 08:37:53 86° W 08:42:28 20° S
NOSS 3-3 (A) 3.8 08:35:52 37° SSW 08:38:11 75° ESE 08:44:22 10° NE
NOSS 3-3 (C) 3.8 08:35:58 36° SSW 08:38:17 74° ESE 08:44:27 10° NE
OAO 2 Rocket 3.9 08:38:03 35° S 08:38:40 37° SSE 08:43:11 10° E
Meteor 1-21 Rocket 4.2 08:41:20 28° S 08:44:25 85° E 08:50:01 10° N
Cosmos 614 Rocket 3.9 08:39:18 10° NNW 08:44:29 74° WSW 08:48:08 20° S
Cosmos 2184 Rocket 4.4 08:39:39 10° NNW 08:45:28 42° W 08:47:43 31° SW
DNEPR-1 R/B 3.6 08:45:34 39° S 08:46:58 66° ESE 08:51:22 10° NE
IRS-1D 3.5 08:41:38 10° NNE 08:46:59 90° NE 08:49:47 29° SSW
Cosmos 1455 3.4 08:43:52 10° NNW 08:46:22 26° WNW 08:46:22 26° WNW
FALCON 9 R/B 4.3 08:21:21 10° WNW 08:47:15 46° SW 08:54:31 10° SSE
SL-16 R/B 3.5 08:45:29 22° W 08:47:38 27° WNW 08:52:27 10° N
CZ-3A R/B 4.3 08:46:12 18° S 08:48:25 22° SE 08:59:28 10° E
Cosmos 2369 Rocket 2.5 08:43:16 10° NNW 08:48:51 67° ENE 08:54:23 10° SSE
Cosmos 2251 Rocket 3.7 08:43:49 10° NNW 08:49:05 72° ENE 08:54:22 10° SSE
Cosmos 1610 Rocket 4.5 08:43:04 10° NNW 08:49:06 63° W 08:52:47 24° SSW
Cosmos 1271 Rocket 2.9 08:48:23 10° NNW 08:52:07 51° W 08:52:48 44° SW
Cosmos 1656 Rocket 4.1 08:51:08 10° NNW 08:56:30 60° ENE 09:01:51 10° SE
COSMOS 2441 4.4 08:52:32 10° N 08:57:22 68° WNW 08:59:45 29° SSW
COSMOS 2455 3.6 08:57:22 24° WSW 09:00:25 40° NW 09:06:05 10° NNE
MOS 1 Rocket 4.1 09:00:29 26° W 09:00:37 26° W 09:04:14 10° NW
Cosmos 2181 Rocket 4.2 08:57:18 13° S 09:02:57 73° E 09:09:07 10° N
Cosmos 962 Rocket 4.4 08:57:45 10° N 09:03:54 81° W 09:10:00 10° S
Cosmos 1606 Rocket 3.5 09:00:12 10° N 09:04:38 89° WSW 09:08:22 14° S
MOS 1-B Rocket 4.1 09:01:46 10° SSE 09:07:21 68° ENE 09:13:00 10° N
Cosmos 1603 3.7 09:07:22 24° SSW 09:10:54 76° WNW 09:16:35 10° NNE
Helios 1B rocket 2.4 09:07:12 10° NNE 09:11:17 84° ESE 09:14:02 20° S
ALOS 3.0 09:08:56 10° NNE 09:13:29 50° E 09:17:59 10° S
Cosmos 1328 3.9 09:14:11 27° SSW 09:16:07 55° W 09:20:02 10° N
MSX 4.5 09:11:46 10° N 09:17:06 40° WNW 09:20:37 20° SW
Lacrosse 5 4.1 09:15:36 10° WNW 09:18:55 17° NNW 09:22:16 10° NNE
CZ-2C R/B 3.0 09:14:13 10° NNE 09:19:14 58° E 09:24:06 10° S
Helios 1A 4.2 09:19:41 22° WSW 09:20:31 24° W 09:23:57 10° NW
Lacrosse 5 rocket 3.7 09:20:22 10° WNW 09:22:31 14° NNW 09:24:43 10° N
Cosmos 1420 Rocket 4.3 09:20:16 11° S 09:25:09 65° ESE 09:30:18 10° NNE
CZ-2D R/B 4.3 09:25:51 10° NW 09:26:23 10° WNW 09:26:56 10° WNW
Lacrosse 4 Rocket 2.5 09:27:42 10° S 09:31:46 41° ESE 09:35:46 10° NE
Cosmos 1371 Rocket 4.0 09:30:20 15° SSW 09:34:41 72° WNW 09:39:52 10° NNE
Cosmos 407 Rocket 3.5 09:30:34 10° NNW 09:35:53 77° WSW 09:41:06 10° S
Cosmos 1892 Rocket 4.0 09:33:24 16° SSW 09:36:39 45° W 09:40:58 10° N
Meteor 1-11 4.3 09:34:44 10° SSW 09:40:31 71° W 09:46:19 10° N
Cosmos 1825 3.0 09:37:47 10° S 09:41:22 50° E 09:44:59 10° NNE
GPS 2-04 Rocket1 2.8 09:39:12 18° WSW 09:41:29 46° SSE 09:44:55 10° E
Cosmos 1943 4.0 09:37:59 15° WSW 09:42:13 37° WNW 09:47:29 10° N
Cosmos 1726 Rocket 4.0 09:39:53 10° NNW 09:44:01 40° W 09:48:04 10° SSW
Cosmos 1140 Rocket 3.6 09:40:51 10° NNW 09:46:00 58° WSW 09:51:07 10° S
Cosmos 2366 rocket 4.0 09:41:24 10° NNW 09:47:28 62° W 09:53:33 10° S
ATLAS 2A CENTAUR R/B 4.0 09:33:43 11° WSW 09:48:18 41° S 09:54:24 10° ESE
SL-08 R/B 4.3 09:43:58 10° SSE 09:48:23 49° ENE 09:52:51 10° N
SeaSat 1 2.7 09:45:13 10° NNE 09:50:09 70° ESE 09:55:03 10° SSW
SL-8 Rocket 4.4 09:48:32 10° NNW 09:54:29 45° W 10:00:24 10° SSW
[s.n.52708] 3.9 09:53:18 11° W 09:55:39 30° NW 09:58:12 10° NNE
[s.n.52707] 3.9 09:53:24 11° W 09:55:46 30° NW 09:58:19 10° NNE
[s.n.52703] 3.9 09:53:31 11° W 09:55:53 30° NW 09:58:26 10° NNE
[s.n.52705] 3.9 09:53:37 11° W 09:55:59 30° NW 09:58:33 10° NNE
[s.n.52706] 3.9 09:53:44 11° W 09:56:06 30° NW 09:58:40 10° NNE
[s.n.52701] 3.9 09:53:51 11° W 09:56:13 30° NW 09:58:47 10° NNE
[s.n.52704] 3.9 09:53:58 11° W 09:56:20 30° NW 09:58:54 10° NNE
[s.n.52699] 3.9 09:54:04 11° W 09:56:27 30° NW 09:59:01 10° NNE
[s.n.52702] 4.0 09:54:11 11° W 09:56:34 30° NW 09:59:07 10° NNE
[s.n.52697] 4.0 09:54:18 11° W 09:56:42 30° NW 09:59:15 10° NNE
[s.n.52700] 4.0 09:54:24 11° W 09:56:48 30° NW 09:59:22 10° NNE
[s.n.52695] 4.0 09:54:31 11° W 09:56:55 30° NW 09:59:28 10° NNE
Cosmos 1484 Rocket 3.6 09:53:08 10° NNE 09:56:55 51° E 10:00:44 10° S
[s.n.52698] 4.0 09:54:38 11° W 09:57:02 30° NW 09:59:36 10° NNE
[s.n.52693] 4.0 09:54:45 11° W 09:57:09 29° NW 09:59:43 10° NNE
[s.n.52696] 4.0 09:54:51 11° W 09:57:16 29° NW 09:59:50 10° NNE
[s.n.52691] 4.0 09:54:58 11° W 09:57:24 29° NW 09:59:57 10° NNE
[s.n.52689] 4.0 09:55:05 11° W 09:57:31 29° NW 10:00:04 10° NNE
[s.n.52694] 4.0 09:55:12 11° W 09:57:38 29° NW 10:00:11 10° NNE
[s.n.52692] 4.0 09:55:19 11° W 09:57:45 29° NW 10:00:18 10° NNE
[s.n.52687] 4.0 09:55:25 11° W 09:57:52 29° NW 10:00:25 10° NNE
[s.n.52685] 4.0 09:55:32 11° W 09:57:59 29° NW 10:00:32 10° NNE
[s.n.52690] 4.0 09:55:39 10° W 09:58:06 29° NW 10:00:39 10° NNE
[s.n.52688] 4.0 09:55:46 10° W 09:58:13 29° NW 10:00:46 10° NNE
IRS-1C 4.3 09:52:58 10° N 09:58:14 61° WNW 10:03:28 10° SSW
[s.n.52683] 4.0 09:55:52 10° W 09:58:20 29° NW 10:00:53 10° NNE
[s.n.52686] 4.0 09:55:59 10° W 09:58:28 29° NW 10:01:00 10° NNE
[s.n.52681] 4.0 09:56:06 10° W 09:58:34 29° NW 10:01:07 10° NNE
Cosmos 1892 3.1 09:55:00 10° SSW 09:58:36 43° W 10:02:13 10° N
[s.n.52679] 4.0 09:56:13 10° W 09:58:42 29° NW 10:01:14 10° NNE
[s.n.52684] 4.0 09:56:20 10° W 09:58:49 28° NW 10:01:21 10° NNE
[s.n.52682] 4.0 09:56:27 10° W 09:58:56 28° NW 10:01:28 10° NNE
[s.n.52677] 4.0 09:56:33 10° W 09:59:03 28° NW 10:01:35 10° NNE
[s.n.52680] 4.1 09:56:41 10° W 09:59:11 28° NW 10:01:43 10° NNE
[s.n.52675] 4.1 09:56:48 10° W 09:59:18 28° NW 10:01:50 10° NNE
[s.n.52678] 4.1 09:56:55 10° W 09:59:25 28° NW 10:01:57 10° NNE
[s.n.52673] 4.1 09:57:02 10° W 09:59:33 28° NW 10:02:04 10° NNE
Cosmos 1954 Rocket 4.3 09:54:18 10° NNW 09:59:38 74° ENE 10:04:55 10° SSE
[s.n.52676] 4.1 09:57:09 10° W 09:59:40 28° NW 10:02:12 10° NNE
[s.n.52671] 4.1 09:57:18 10° W 09:59:48 28° NW 10:02:19 10° NNE
[s.n.52669] 4.1 09:57:25 10° W 09:59:55 28° NW 10:02:26 10° NNE
[s.n.52674] 4.1 09:57:31 10° W 10:00:02 28° NW 10:02:34 10° NNE
[s.n.52672] 4.1 09:57:38 10° W 10:00:09 28° NW 10:02:40 10° NNE
[s.n.52667] 4.1 09:57:47 10° W 10:00:17 28° NW 10:02:47 10° NNE
[s.n.52665] 4.1 09:57:54 10° W 10:00:24 28° NW 10:02:55 10° NNE
[s.n.52670] 4.1 09:58:01 10° W 10:00:32 27° NW 10:03:02 10° NNE
[s.n.52668] 4.1 09:58:09 10° W 10:00:39 27° NW 10:03:10 10° NNE
[s.n.52666] 4.1 09:58:16 10° W 10:00:46 27° NW 10:03:17 10° NNE
[s.n.52663] 4.1 09:58:24 10° W 10:00:53 27° NW 10:03:24 10° NNE
[s.n.52662] 4.1 09:58:31 10° W 10:01:00 27° NW 10:03:31 10° NNE
[s.n.52664] 4.1 09:58:39 10° W 10:01:08 27° NW 10:03:39 10° NNE
[s.n.52661] 4.1 09:58:47 10° W 10:01:16 27° NW 10:03:46 10° NNE
[s.n.52660] 4.1 09:58:54 10° W 10:01:23 27° NW 10:03:53 10° NNE
[s.n.52656] 4.1 09:59:02 10° W 10:01:31 27° NW 10:04:00 10° NNE
[s.n.52658] 4.1 09:59:09 10° W 10:01:39 27° NW 10:04:09 10° NNE
[s.n.52659] 4.2 09:59:16 10° W 10:01:45 27° NW 10:04:16 10° NNE
[s.n.52657] 4.2 09:59:25 10° W 10:01:53 27° NW 10:04:24 10° NNE
FENGYUN 3A 4.2 10:00:25 10° N 10:05:27 42° WNW 10:10:29 10° SW
Cosmos 1408 3.7 10:05:12 10° SW 10:08:18 26° WNW 10:11:23 10° NNW
DELTA 2 DEB (DPAF) 4.3 10:06:08 10° S 10:10:27 54° W 10:14:48 10° NNW
ARIANE 5 R/B 2.7 10:06:00 10° N 10:10:54 53° WNW 10:15:45 10° SSW
IKONOS-2 4.5 10:08:57 10° S 10:13:08 69° WSW 10:17:20 10° NNW
SEDSat Delta rocket 4.5 10:07:59 10° WSW 10:14:27 48° S 10:20:44 10° ESE
CZ-2C R/B 3.7 10:11:43 10° SSE 10:16:43 51° ENE 10:21:48 10° N
